Location: Columbus
(29.5618°N, 96.6770°W)
Time: 17:33:53
(UTC-05:00)

Daily predictions for brighter satellites

Satellite Brightness Start Highest point End
(mag) Time Altitude Azimuth Time Altitude Azimuth Time Altitude Azimuth
Cosmos 2123 Rocket 4.5 19:57:13 10° NNE 20:03:03 39° E 20:08:48 10° SSE
Cosmos 2297 4.1 20:00:24 10° S 20:05:42 42° ESE 20:11:04 10° NE
H-2A R/B 4.2 20:05:42 10° ESE 20:08:33 20° ENE 20:11:26 10° NNE
Cosmos 1125 Rocket 3.7 20:10:09 10° S 20:15:08 50° ESE 20:20:09 10° NNE
Delta 128 3.6 20:11:04 10° W 20:15:44 71° S 20:19:57 11° E
Cosmos 1707 4.1 20:15:47 10° NNW 20:19:29 44° W 20:23:09 10° SSW
SeaSat 1 3.1 20:19:03 10° SE 20:23:31 36° ENE 20:28:01 10° N
Cosmos 2082 Rocket 3.6 20:20:48 10° NNE 20:24:53 20° ENE 20:27:52 14° E
HJ-1C 3.7 20:22:32 10° SSE 20:25:48 46° ENE 20:29:05 10° N
Cosmos 1758 3.5 20:22:17 10° SSE 20:26:05 46° E 20:29:54 10° NNE
Geosat 4.3 20:21:37 10° NE 20:26:23 43° ESE 20:31:07 10° S
CZ-2C R/B 1.5 20:25:20 10° NNE 20:26:58 40° E 20:29:42 10° SSE
ALOS 2.2 20:23:18 10° SSE 20:27:55 65° ENE 20:32:32 10° N
Meteor 1-24 Rocket 3.8 20:24:27 10° N 20:30:04 88° W 20:35:52 10° S
Cosmos 1953 2.4 20:29:15 10° S 20:33:12 53° E 20:37:10 10° NNE
GPS 2-05 Rocket1 3.9 20:29:51 10° W 20:33:13 40° NNW 20:36:15 12° ENE
Cosmos 1271 Rocket 3.9 20:30:34 10° SE 20:33:47 24° E 20:37:02 10° NE
PSLV R/B 4.4 20:31:16 10° SSW 20:33:50 23° SE 20:34:42 20° ESE
SL-27 R/B 3.0 20:35:08 10° NNW 20:38:43 64° WSW 20:42:18 10° S
Helios 1B rocket 3.0 20:38:08 10° NNE 20:41:54 34° E 20:45:39 10° SSE
OAO 2 Rocket 3.7 20:37:06 10° SW 20:42:04 49° SSE 20:45:21 21° E
Okean 3 Rocket 3.5 20:39:44 10° N 20:44:07 68° E 20:48:31 10° SSE
IUS-7 SRM-1 3.1 20:42:45 10° SW 20:44:40 29° SSE 20:45:19 25° SE
SWAS 4.3 20:42:03 10° SSW 20:46:18 79° ESE 20:50:36 10° NNE
Abrixas 4.4 20:45:04 10° N 20:46:51 15° NNE 20:46:58 15° NE
Tiangong 1 0.8 20:45:06 10° NW 20:48:02 75° NE 20:48:52 42° ESE
Cosmos 1076 Rocket 3.8 20:44:14 10° N 20:48:17 43° E 20:51:11 17° SSE
Meteor 1-29 3.9 20:47:00 10° NE 20:49:25 28° ENE 20:49:25 28° ENE
Cosmos 1674 3.6 20:48:18 10° NNE 20:51:30 28° ENE 20:51:30 28° ENE
Helios 1A 3.7 20:53:10 29° E 20:53:53 31° ENE 20:57:36 10° N
Delta 168 3.0 20:53:10 10° WSW 20:57:04 42° S 20:57:52 35° SE
COSMOS 2487 3.5 20:54:16 10° N 20:56:56 28° NE 20:56:56 28° NE
ISS -1.9 20:55:57 10° WSW 20:58:51 29° NW 21:01:45 10° NNE
Delta 2 Rocket 3.6 20:57:31 10° WNW 21:02:21 72° SSW 21:03:57 38° SE
Cosmos 1818 3.6 20:57:24 10° NNW 21:02:45 57° ENE 21:05:09 31° SE
GP-B 3.1 21:00:38 14° SSE 21:04:16 59° E 21:08:38 10° N
Meteor 1-4 Rocket 3.9 21:02:10 10° SSW 21:05:26 39° W 21:08:43 10° N
CZ-2D R/B 3.1 21:03:34 23° SSE 21:05:53 82° ENE 21:09:46 10° N
Cosmos 1269 Rocket 4.1 21:01:04 10° N 21:06:14 53° ENE 21:08:17 33° SE
Cosmos 372 Rocket 4.4 21:02:47 10° SSW 21:07:49 62° WNW 21:12:55 10° N
H-II Stage 2 1.1 21:06:45 10° W 21:08:29 63° WSW 21:08:29 63° WSW
Cosmos-2242 2.8 21:05:04 10° S 21:09:18 78° E 21:13:33 10° N
Cosmos 1766 Rocket 3.6 21:05:22 10° N 21:09:47 58° E 21:11:01 41° SE
Cosmos 468 4.5 21:06:26 10° NNW 21:11:42 87° WSW 21:15:32 19° SSE
Resurs 01 Rocket 2.1 21:07:45 10° S 21:12:06 61° W 21:16:28 10° NNW
Cosmos 2016 Rocket 4.2 21:07:54 15° SSE 21:12:41 43° E 21:18:27 10° NNE
Cosmos 158 Rocket 4.0 21:14:40 10° N 21:19:46 59° ENE 21:20:47 50° ESE
Aurora 2 Rocket 3.4 21:13:20 10° WSW 21:20:32 56° S 21:21:52 45° SE
USA 215 3.2 21:16:49 10° NE 21:23:23 88° SE 21:29:54 10° SW
Meteor 1-21 Rocket 4.3 21:18:08 10° N 21:24:01 83° W 21:29:19 13° S
Cosmos 1470 3.3 21:23:25 10° SSW 21:27:20 60° W 21:31:16 10° N
Spot 2 Rocket 4.3 21:22:34 10° S 21:27:28 49° W 21:32:25 10° NNW
Cosmos 2100 Rocket 4.0 21:23:48 10° S 21:30:06 81° W 21:36:29 10° N
Cosmos 1733 3.8 21:26:56 10° SSW 21:30:42 56° W 21:34:31 10° N
Cosmos 1833 Rocket 2.5 21:25:23 10° NNW 21:31:00 72° ENE 21:31:55 60° SE
ATLAS 5 CENTAUR R/B 3.9 21:36:02 10° WSW 21:39:55 26° NW 21:44:02 10° N
Yuri Rocket 4.3 21:40:32 10° W 21:43:27 31° SW 21:43:27 31° SW
Cosmos 1340 Rocket 4.3 21:40:51 10° N 21:42:57 30° N 21:42:57 30° N
Envisat 2.9 21:45:56 77° N 21:45:56 77° N 21:50:41 10° N
OAO 1 4.5 21:45:20 10° WNW 21:50:31 79° W 21:50:31 79° W
Cosmos 1802 Rocket 4.2 21:46:40 10° SSW 21:52:43 66° W 21:58:50 10° N
Cosmos 2082 Rocket 3.1 22:03:45 10° NW 22:09:05 43° WSW 22:09:47 41° SW
